Weather in Yubileyny

Russia / Mari El Republic     56°44′55″N   48°12′57″E
temp.,
°C
wind,
m/s
gust,
m/s
humid.,
%
clouds,
%
prec.,
mm/h
press.,
hPa
HPBL,
m
26 february, fri
fri2600:00−19se499596 0.0 1017294
03:00−20se489693 0.1 1018185
06:00−22se489884 0.0 1017180
09:00−19se599591 0.0 1016329
12:00−15se61091100 0.0 1015500
15:00−13se71291100 0.1 1012619
18:00−13se91692100 0.3 1006612
21:00−12se91794100 4.3 1001659
27 february, sat
sat2700:00−12se71494100 4.0 998567
03:00−12ese61094100 5.3 997401
06:00−12e5995100 0.6 996334
09:00−11ene5894100 1.9 997368
12:00−10ene6993100 0.7 998499
15:00−11ne61092100 1.1 1001589
18:00−12nne61093100 0.4 1003514
21:00−13nne5109398 0.6 1005383
28 february, sun
sun2800:00−15nne5995100 0.1 1006249
03:00−20n499781 0.1 1009161
06:00−22nne479836 0.0 1010135
09:00−19n469520 0.0 1011249
12:00−16n469266 0.0 1012346
15:00−15n479182 0.0 1013444
18:00−19n349794 0.0 101585
21:00−21nne339759 0.0 101831
1 march, mon
mon100:00−22n33970 0.0 101924
03:00−23n23980 0.0 102120
06:00−23n23990 0.0 102220
09:00−19nw11958 0.0 102384
12:00−15wsw238951 0.0 1023264
15:00−12sw359069 0.0 1022395
18:00−15sw479788 0.0 1019118
21:00−14sw5109693 0.0 1017278
2 march, tue
tue200:00−12ssw61195100 0.4 1012383
03:00−8ssw61195100 1.6 1008435
06:00−6sw5996100 0.8 1005313
09:00−2wnw379698 1.6 1004369
12:000wnw479799 0.2 1003572
15:00−1nw3596100 0.6 1002431
18:00−4wnw3395100 0.1 100241
21:00−4nw4109498 0.1 1003239